Flag for Saint Kitts and Nevis Weather past 2 weeks in Basseterre, Saint Kitts and Nevis

Now
81 °F

Passing clouds.


Feels Like: 86 °F
Forecast: 81 / 84 °F
Wind: 8 mph from Southeast

Location: Golden Rock

Current Time: Jul 30, 2014 at 8:10:05 PM

Latest Report: Jul 30, 2014 at 7:00 PM


Visibility: N/A

Pressure: 30.01 "Hg

Humidity: 84%

Dew point: 75 °F

Location of BasseterreLocation

Historic Weather in Basseterre — Graph

°F

Basseterre temperature yesterday

Maximum temperature yesterday: 90 °F (at 1:00 PM)
Minimum temperature yesterday: 81 °F (at 6:00 AM)
Average temperature yesterday: 84 °F

Past Weeks' High & Low Weather Summary

 TemperatureHumidityPressure
High90 °F (Jul 25, 2:00 PM)100% (Jul 19, 8:00 AM)30.12 "Hg (Jul 19, 8:00 AM)
Low77 °F (Jul 17, 2:00 PM)55% (Jul 29, 1:00 PM)29.95 "Hg (Jul 19, 8:00 AM)
Average84 °F77%30.06 "Hg
* Reported Jul 15 7:00 PM — Jul 30 7:00 PM, Basseterre, Weather by CustomWeather, © 2014

Note: Actual official high and low records may vary slightly from our data, if they occured in-between our weather recording intervals... More about our weather records

Advertising

Basseterre weather history for previous 24 hours

 ConditionsComfort  
Time TempWeatherWind HumidityBarometerVisibility
7:00 PM
Jul 30
81 °FPassing clouds.8 mph84%30.01 "HgN/A
6:00 PM82 °FPassing clouds.12 mph79%30.01 "HgN/A
5:00 PM84 °FScattered clouds.12 mph70%29.98 "HgN/A
4:00 PM86 °FPartly sunny.14 mph66%30.01 "HgN/A
3:00 PM88 °FScattered clouds.12 mph59%30.01 "HgN/A
2:00 PM86 °FScattered clouds.15 mph66%30.01 "HgN/A
1:00 PM86 °FPartly sunny.12 mph70%30.04 "HgN/A
12:00 PM86 °FScattered showers. Passing clouds.15 mph66%30.04 "HgN/A
11:00 AM86 °FPassing clouds.8 mph66%30.07 "HgN/A
10:00 AM84 °FScattered clouds.6 mph66%30.07 "HgN/A
9:00 AM82 °FSprinkles. Partly sunny.7 mph66%30.07 "HgN/A
8:00 AM81 °FPartly sunny.13 mph79%30.07 "HgN/A
7:00 AM81 °FPassing clouds.13 mph79%30.04 "HgN/A
6:00 AM79 °FPassing clouds.8 mph84%30.04 "HgN/A
10:00 PM
Jul 29
81 °FPassing clouds.14 mph79%30.07 "HgN/A
9:00 PM81 °FPassing clouds.14 mph79%30.04 "HgN/A
8:00 PM81 °FPassing clouds.14 mph74%30.04 "HgN/A
Weather by CustomWeather, © 2014

See weather overviewHow to use our weather pages